Regional Weather Roundup
Issued by NWS

Home | Current Version | Previous Version | Graphics & Text | Print | Product List | Glossary On
Versions: 1 2 3 4 5 6 7 8 9 10 11 12 13 14 15 16 17 18 19 20 21 22 23 24 25 26 27 28 29 30 31 32 33 34 35 36 37 38 39 40 41 42 43 44 45 46 47 48 49 50
000
ASUS43 KMPX 100310
RWRMN
WEATHER ROUNDUP FOR MINNESOTA
NATIONAL WEATHER SERVICE TWIN CITIES/CHANHASSEN MN
1000 PM CDT WED JUL 09 2014


NOTE: "FAIR" INDICATES FEW OR NO CLOUDS BELOW 12,000 FEET WITH NO
SIGNIFICANT WEATHER AND/OR OBSTRUCTIONS TO VISIBILITY. N/A MEANS
CURRENT SKY AND/OR WEATHER CONDITIONS ARE NOT AVAILABLE.

MNZ060>063-068>070-100400-
   Twin Cities Metro

CITY           SKY/WX    TMP DP  RH WIND       PRES   REMARKS
TWIN CITIES    PTCLDY    70  55  59 SE6       30.00R
ST PAUL        CLEAR     69  59  70 CALM      30.00R
CRYSTAL        CLEAR     68  57  68 E5        29.99R
BLAINE         CLEAR     68  59  73 CALM      30.00R
LAKEVILLE      CLEAR     64  55  72 CALM      30.01R
EDEN PRAIRIE   CLEAR     68  56  65 E5        29.99R
SOUTH ST PAUL  CLEAR     71  54  53 CALM      30.00R
LAKE ELMO      FAIR      63  59  88 CALM      30.02R
$$
MNZ001>005-007-008-013>017-022>024-027-028-100400-
   Northwest Minnesota

CITY           SKY/WX    TMP DP  RH WIND       PRES   REMARKS
BEMIDJI        CLEAR     61  53  75 CALM      30.01R
HALLOCK        CLEAR     61  55  82 SE3       29.97R
ROSEAU         CLEAR     63  54  72 CALM      29.98S
WARROAD        PTCLDY    63  55  77 W6        29.99R
THIEF RVR FALL CLEAR     63  52  67 CALM      30.00R
CROOKSTON      CLEAR     64  55  72 CALM      30.00R
FOSSTON        CLEAR     59  54  82 CALM      30.01R
DETROIT LAKES  CLEAR     64  54  68 CALM      30.02S
MOORHEAD       CLEAR     70  55  60 E5        29.99S
PARK RAPIDS    CLEAR     62  53  72 CALM      30.01R
$$
MNZ006-009>011-018-025>026-100400-
   North Central Minnesota

CITY           SKY/WX    TMP DP  RH WIND       PRES   REMARKS
BAUDETTE       CLEAR     60  52  74 CALM      30.00R
FLAG ISLAND    CLEAR     66  54  63 S5        29.96S
INTL FALLS     MOCLDY    54  52  93 CALM      30.00R
WASKISH        CLEAR     59  54  82 CALM      30.00R
LONGVILLE      CLEAR     55  54  94 CALM      30.01R
GRAND RAPIDS   CLEAR     55  52  88 S3        30.01R
CRANE LAKE     CLEAR     52  50  93 CALM      30.03R
ORR            MOCLDY    55  52  88 CALM      29.99R
COOK           PTCLDY    55  52  88 CALM      30.02R
$$
MNZ012-019>021-037-100400-
   Northeast Minnesota

CITY           SKY/WX    TMP DP  RH WIND       PRES   REMARKS
DULUTH         PTCLDY    61  51  70 CALM      30.02R
ELY            CLEAR     54  48  82 CALM      30.03R
HIBBING        CLEAR     55  52  89 CALM      30.01R
EVELETH        CLEAR     54  50  87 CALM      30.03R
DULUTH HARBOR  CLEAR     61  55  82 NE3       30.01S
TWO HARBORS    CLEAR     54  48  82 CALM      30.00R
SILVER BAY     CLEAR     52  52 100 CALM      30.01R
GRAND MARAIS     N/A     43  40  89 SW3       30.01R
G MARAIS ARPRT CLEAR     52  46  82 CALM      30.04R
$$
MNZ029>031-032-039>041-046>048-054>057-064-100400-
   West Central Minnesota

CITY           SKY/WX    TMP DP  RH WIND       PRES   REMARKS
FERGUS FALLS   CLEAR     66  52  59 E5        30.00R
WHEATON        CLEAR     64  54  68 CALM      30.01R
MORRIS         CLEAR     63  57  82 E5        30.00R
ALEXANDRIA     CLEAR     66  53  63 CALM      30.02R
ELBOW LAKE     FAIR      66  52  59 E3        30.00R
WADENA         CLEAR     59  54  82 CALM      30.01R
GLENWOOD       CLEAR     64  54  68 CALM      30.02R
APPLETON       CLEAR     64  57  77 CALM      29.99R
BENSON         CLEAR     63  57  82 CALM      30.00R
ORTONVILLE     CLEAR     70  55  60 CALM      29.99R
MADISON        CLEAR     68  57  68 CALM      30.00R
WILLMAR        FAIR      66  55  68 CALM      30.02R
$$
MNZ033>034-036-042>043-049>051-058-059-100400-
   Central Minnesota

CITY           SKY/WX    TMP DP  RH WIND       PRES   REMARKS
ST CLOUD       PTCLDY    64  58  80 CALM      30.00R
SAUK CENTRE    FAIR      63  52  67 CALM      30.01R
PAYNESVILLE    CLEAR     58  54  85 CALM      30.02R
AITKIN         CLEAR     61  54  77 CALM      30.00R
PINE RIVER     PTCLDY    61  55  82 CALM      30.04R
BRAINERD       MOCLDY    68  56  65 CALM      30.01R
STAPLES        CLEAR     63  55  77 CALM      30.01R
LONG PRAIRIE   FAIR      61  54  77 CALM      30.02R
LITTLE FALLS   CLEAR     61  54  77 CALM      30.01R
LITCHFIELD     PTCLDY    66  55  68 CALM      30.01S
BUFFALO        CLEAR     67  56  68 CALM      30.01R
MAPLE LAKE     CLEAR     64  60  86 CALM      30.01R
$$
MNZ037-044-045-052-053-100400-
   East Central Minnesota

CITY           SKY/WX    TMP DP  RH WIND       PRES   REMARKS
PRINCETON      CLEAR     63  57  82 CALM      30.01R
MORA           CLEAR     59  52  77 CALM      30.02S
CAMBRIDGE      CLEAR     66  54  63 CALM      29.99R
RUSH CITY      CLEAR     58  54  86 CALM      30.01R
MOOSE LAKE     PTCLDY    55  54  94 CALM      30.00R
HINCKLEY       FAIR      59  57  94 CALM      30.01R
CLOQUET        CLEAR     61  52  72 CALM      30.02R
MCGREGOR       CLEAR     61  55  82 CALM      30.02R
$$
MNZ071>073-080-081-089-090-097-098-100400-
   Southwest Minnesota

CITY           SKY/WX    TMP DP  RH WIND       PRES   REMARKS
MONTEVIDEO     CLEAR     64  54  68 CALM      30.01R
GRANITE FALLS  CLEAR     70  54  56 NE3       30.01S
CANBY          CLEAR     66  56  71 CALM      30.01R
MARSHALL       CLEAR     70  52  52 MISG      30.00R
REDWOOD FALLS  CLEAR     72  52  49 CALM      30.00R
OLIVIA         CLEAR     70  54  56 CALM      30.00R
PIPESTONE      CLEAR     70  57  64 E3        30.02R
WINDOM         CLEAR     66  55  68 CALM      30.02R
WORTHINGTON    CLEAR     64  59  82 E6        30.03R
JACKSON        PTCLDY    68  54  60 E3        30.03R
TRACY          CLEAR     66  56  70 CALM      30.01R
SLAYTON        CLEAR     67  53  59 CALM      30.03R
$$
MNZ065>067-074>077-082>085-091>093-100400-
   South Central Minnesota

CITY           SKY/WX    TMP DP  RH WIND       PRES   REMARKS
MANKATO        CLEAR     72  54  53 NE3       30.01R
NEW ULM        CLEAR     70  54  56 CALM      30.00R
ST JAMES       CLEAR     70  57  64 CALM      30.02R
FAIRMONT       MOCLDY    68  54  60 CALM      30.01R
GLENCOE        CLEAR     66  53  64 E3        30.00R
FARIBAULT      CLEAR     64  57  77 CALM      30.02R
OWATONNA       CLEAR     66  57  72 CALM      30.02R
WASECA         CLEAR     63  50  63 CALM      30.03R
ALBERT LEA     CLEAR     66  57  72 CALM      30.02R
$$
MNZ078>079-086>088-094>096-100400-
   Southeast Minnesota

CITY           SKY/WX    TMP DP  RH WIND       PRES   REMARKS
ROCHESTER      CLEAR     64  57  78 SE6       30.04R
RED WING       CLEAR     63  59  88 CALM      30.00R
STANTON        CLEAR     65  58  79 CALM      30.00R
DODGE CENTER   CLEAR     64  59  82 E3        30.03R
WINONA         CLEAR     66  57  72 CALM      30.02R
AUSTIN         CLEAR     64  57  77 E5        30.02R
PRESTON        CLEAR     67  58  72 SE3       30.04R
$$
ABBREVIATIONS USED IN REMARKS
   TC - TEMPERATURES IN CELSIUS
  WCI - WIND CHILL INDEX
   HX - HEAT INDEX
  VSB - VISIBILITY
$$


USA.gov is the U.S. government's official web portal to all federal, state and local government web resources and services.